| time (UTC) | temp F | wind direction | speed MPH | gust MPH | rain 1hr in | rain 24hr in | rain mn in | humidity % | barometer mb |
| 20260904140020 | 77 | 56 | 0.0 | 1.0 | 0.00 | 0.03 | 0.00 | 83 | 1014.1 |
| 20260904134517 | 75 | 232 | 0.0 | 1.0 | 0.00 | 0.03 | 0.00 | 84 | 1014.1 |
| 20260904133016 | 74 | 222 | 0.0 | 2.0 | 0.00 | 0.03 | 0.00 | 86 | 1013.9 |
| 20260904131514 | 74 | 107 | 0.0 | 1.0 | 0.00 | 0.03 | 0.00 | 88 | 1014.0 |
| 20260904130014 | 73 | 163 | 0.0 | 3.0 | 0.00 | 0.03 | 0.00 | 89 | 1014.2 |
| 20260904124514 | 72 | 217 | 0.0 | 0.0 | 0.00 | 0.03 | 0.00 | 90 | 1014.4 |
| 20260904123013 | 71 | 216 | 0.0 | 3.0 | 0.00 | 0.03 | 0.00 | 92 | 1014.3 |
| 20260904121513 | 70 | 225 | 0.0 | 0.0 | 0.00 | 0.03 | 0.00 | 94 | 1014.5 |
| 20260904120011 | 69 | 225 | 0.0 | 0.0 | 0.00 | 0.04 | 0.00 | 96 | 1014.6 |
| 20260904114510 | 69 | 225 | 0.0 | 0.0 | 0.00 | 0.04 | 0.00 | 97 | 1014.5 |
| 20260904113010 | 68 | 225 | 0.0 | 0.0 | 0.00 | 0.04 | 0.00 | 97 | 1014.4 |
| 20260904111506 | 68 | 225 | 0.0 | 0.0 | 0.00 | 0.04 | 0.00 | 96 | 1014.0 |
| 20260904110004 | 68 | 225 | 0.0 | 0.0 | 0.00 | 0.06 | 0.00 | 95 | 1013.8 |
| 20260904104606 | 68 | 225 | 0.0 | 1.0 | 0.00 | 0.06 | 0.00 | 95 | 1013.6 |
| 20260904103109 | 69 | 226 | 0.0 | 0.0 | 0.00 | 0.06 | 0.00 | 95 | 1013.4 |
| 20260904101558 | 69 | 229 | 0.0 | 1.0 | 0.00 | 0.06 | 0.00 | 95 | 1013.3 |
| 20260904100056 | 69 | 231 | 0.0 | 0.0 | 0.00 | 0.06 | 0.00 | 95 | 1013.4 |
| 20260904094556 | 69 | 222 | 0.0 | 1.0 | 0.00 | 0.34 | 0.00 | 95 | 1013.4 |
| 20260904093055 | 69 | 222 | 0.0 | 0.0 | 0.00 | 0.34 | 0.00 | 95 | 1013.2 |
| 20260904091606 | 69 | 222 | 0.0 | 0.0 | 0.00 | 0.34 | 0.00 | 95 | 1013.0 |
| 20260904090053 | 69 | 222 | 0.0 | 0.0 | 0.00 | 0.34 | 0.00 | 95 | 1013.4 |
| 20260904084553 | 69 | 222 | 0.0 | 0.0 | 0.00 | 0.34 | 0.00 | 95 | 1013.4 |
| 20260904083106 | 69 | 222 | 0.0 | 0.0 | 0.00 | 0.34 | 0.00 | 95 | 1013.5 |
| 20260904081551 | 69 | 222 | 0.0 | 0.0 | 0.00 | 0.34 | 0.00 | 95 | 1013.4 |
| 20260904080050 | 69 | 222 | 0.0 | 0.0 | 0.00 | 0.34 | 0.00 | 94 | 1013.4 |
| 20260904074603 | 69 | 222 | 0.0 | 0.0 | 0.00 | 0.34 | 0.00 | 94 | 1013.4 |
| 20260904073051 | 69 | 222 | 0.0 | 0.0 | 0.00 | 0.34 | 0.00 | 94 | 1013.2 |
| 20260904071548 | 69 | 222 | 0.0 | 0.0 | 0.00 | 0.34 | 0.00 | 94 | 1013.3 |
| 20260904070051 | 70 | 222 | 0.0 | 1.0 | 0.00 | 0.34 | 0.00 | 93 | 1012.9 |
| 20260904064546 | 70 | 222 | 0.0 | 1.0 | 0.00 | 0.34 | 0.00 | 92 | 1012.4 |
| 20260904063047 | 70 | 226 | 0.0 | 2.0 | 0.00 | 0.34 | 0.00 | 91 | 1012.3 |
| 20260904061544 | 70 | 231 | 0.0 | 1.0 | 0.00 | 0.34 | 0.00 | 91 | 1012.2 |
| 20260904060042 | 70 | 225 | 0.0 | 0.0 | 0.00 | 0.34 | 0.00 | 91 | 1011.8 |
| 20260904054541 | 71 | 225 | 0.0 | 0.0 | 0.00 | 0.34 | 0.00 | 90 | 1011.9 |
| 20260904053038 | 72 | 225 | 0.0 | 0.0 | 0.00 | 0.34 | 0.00 | 89 | 1012.2 |
| 20260904051534 | 72 | 225 | 0.0 | 0.0 | 0.00 | 0.34 | 0.00 | 88 | 1012.4 |
| 20260904050031 | 73 | 226 | 0.0 | 1.0 | 0.00 | 0.34 | 0.00 | 87 | 1012.6 |
| 20260904044529 | 74 | 226 | 0.0 | 2.0 | 0.00 | 0.34 | 0.00 | 86 | 1012.7 |
| 20260904043026 | 74 | 219 | 0.0 | 3.0 | 0.00 | 0.34 | 0.00 | 88 | 1012.5 |
| 20260904041532 | 75 | 208 | 0.0 | 2.0 | 0.00 | 0.34 | 0.00 | 89 | 1013.0 |
| 20260904040020 | 76 | 271 | 0.0 | 2.0 | 0.00 | 0.34 | 0.34 | 94 | 1013.5 |
| 20260904034519 | 76 | 219 | 0.0 | 1.0 | 0.00 | 0.34 | 0.34 | 95 | 1013.9 |
| 20260904033018 | 77 | 214 | 0.0 | 3.0 | 0.00 | 0.34 | 0.34 | 94 | 1014.2 |
| 20260904031518 | 77 | 233 | 0.0 | 1.0 | 0.00 | 0.34 | 0.34 | 93 | 1014.1 |
| 20260904030017 | 78 | 233 | 0.0 | 0.0 | 0.00 | 0.34 | 0.34 | 92 | 1014.3 |
| 20260904024517 | 78 | 233 | 0.0 | 0.0 | 0.00 | 0.34 | 0.34 | 90 | 1014.2 |
| 20260904023017 | 78 | 230 | 0.0 | 1.0 | 0.00 | 0.34 | 0.34 | 90 | 1013.7 |
| 20260904021527 | 78 | 230 | 0.0 | 0.0 | 0.00 | 0.34 | 0.34 | 90 | 1013.6 |
| 20260904020016 | 78 | 230 | 0.0 | 0.0 | 0.00 | 0.34 | 0.34 | 90 | 1013.7 |
| 20260904014515 | 78 | 230 | 0.0 | 0.0 | 0.00 | 0.34 | 0.34 | 90 | 1013.5 |
| 20260904013016 | 78 | 230 | 0.0 | 1.0 | 0.00 | 0.34 | 0.34 | 89 | 1013.0 |
| 20260904011514 | 78 | 230 | 0.0 | 0.0 | 0.00 | 0.34 | 0.34 | 89 | 1013.3 |
| 20260904010014 | 78 | 230 | 0.0 | 0.0 | 0.00 | 0.34 | 0.34 | 89 | 1013.5 |
| 20260904004513 | 78 | 241 | 0.0 | 0.0 | 0.00 | 0.34 | 0.34 | 88 | 1013.6 |
| 20260904003013 | 78 | 241 | 0.0 | 0.0 | 0.00 | 0.34 | 0.34 | 87 | 1013.8 |
| 20260904001516 | 78 | 241 | 0.0 | 1.0 | 0.00 | 0.34 | 0.34 | 87 | 1014.0 |
| 20260904000013 | 79 | 241 | 0.0 | 1.0 | 0.00 | 0.34 | 0.34 | 85 | 1014.0 |
| 20260903234511 | 79 | 242 | 0.0 | 0.0 | 0.00 | 0.34 | 0.34 | 85 | 1013.6 |
| 20260903233011 | 80 | 242 | 0.0 | 0.0 | 0.00 | 0.34 | 0.34 | 84 | 1013.3 |
| 20260903231510 | 81 | 242 | 0.0 | 1.0 | 0.00 | 0.34 | 0.34 | 82 | 1013.4 |
| 20260903230013 | 81 | 242 | 0.0 | 0.0 | 0.00 | 0.34 | 0.34 | 81 | 1013.3 |
| 20260903224508 | 82 | 242 | 0.0 | 0.0 | 0.00 | 0.34 | 0.34 | 79 | 1013.4 |
| 20260903223009 | 83 | 207 | 0.0 | 3.0 | 0.00 | 0.34 | 0.34 | 76 | 1013.0 |
| 20260903221508 | 84 | 221 | 0.0 | 2.0 | 0.00 | 0.34 | 0.34 | 74 | 1013.0 |
| 20260903220007 | 84 | 222 | 0.0 | 4.0 | 0.00 | 0.34 | 0.34 | 73 | 1012.9 |
| 20260903214509 | 85 | 217 | 0.0 | 3.0 | 0.00 | 0.34 | 0.34 | 71 | 1013.0 |
| 20260903213006 | 86 | 214 | 0.0 | 1.0 | 0.00 | 0.34 | 0.34 | 71 | 1012.9 |
| 20260903211505 | 86 | 208 | 0.0 | 3.0 | 0.00 | 0.34 | 0.34 | 70 | 1012.8 |
| 20260903210003 | 86 | 219 | 1.0 | 5.0 | 0.00 | 0.34 | 0.34 | 69 | 1013.0 |
| 20260903204503 | 87 | 255 | 0.0 | 2.0 | 0.00 | 0.34 | 0.34 | 69 | 1013.0 |
| 20260903203004 | 88 | 206 | 0.0 | 3.0 | 0.00 | 0.34 | 0.34 | 67 | 1013.1 |
| 20260903201501 | 87 | 257 | 0.0 | 4.0 | 0.00 | 0.34 | 0.34 | 67 | 1013.1 |
| 20260903200104 | 88 | 231 | 0.0 | 2.0 | 0.00 | 0.34 | 0.34 | 68 | 1013.3 |
| 20260903194557 | 87 | 226 | 0.0 | 4.0 | 0.00 | 0.34 | 0.34 | 69 | 1013.5 |
| 20260903193053 | 87 | 207 | 0.0 | 4.0 | 0.00 | 0.34 | 0.34 | 68 | 1013.8 |
| 20260903191651 | 87 | 231 | 0.0 | 2.0 | 0.00 | 0.34 | 0.34 | 68 | 1014.0 |
| 20260903190049 | 87 | 219 | 0.0 | 4.0 | 0.00 | 0.34 | 0.34 | 67 | 1014.2 |
| 20260903184545 | 86 | 225 | 0.0 | 3.0 | 0.00 | 0.34 | 0.34 | 70 | 1014.3 |
| 20260903183041 | 85 | 207 | 0.0 | 4.0 | 0.00 | 0.34 | 0.34 | 74 | 1014.4 |
| 20260903181538 | 83 | 219 | 0.0 | 4.0 | 0.00 | 0.34 | 0.34 | 77 | 1014.5 |
| 20260903180044 | 82 | 271 | 0.0 | 3.0 | 0.00 | 0.34 | 0.34 | 79 | 1014.7 |
| 20260903174530 | 81 | 200 | 0.0 | 3.0 | 0.00 | 0.46 | 0.34 | 81 | 1014.9 |
| 20260903173025 | 80 | 228 | 0.0 | 2.0 | 0.00 | 0.46 | 0.34 | 85 | 1015.1 |
| 20260903171529 | 79 | 205 | 0.0 | 4.0 | 0.00 | 0.46 | 0.34 | 88 | 1015.2 |
| 20260903170033 | 78 | 213 | 0.0 | 2.0 | 0.00 | 0.65 | 0.34 | 93 | 1015.5 |
| 20260903164520 | 77 | 234 | 0.0 | 1.0 | 0.00 | 0.65 | 0.34 | 93 | 1015.5 |
| 20260903163021 | 76 | 260 | 0.0 | 1.0 | 0.00 | 0.65 | 0.34 | 95 | 1015.8 |
| 20260903161512 | 74 | 220 | 0.0 | 3.0 | 0.00 | 0.65 | 0.34 | 97 | 1016.1 |
| 20260903160011 | 74 | 63 | 0.0 | 4.0 | 0.02 | 0.65 | 0.34 | 98 | 1015.9 |
| 20260903154510 | 73 | 89 | 0.0 | 3.0 | 0.03 | 0.65 | 0.34 | 98 | 1015.6 |
| 20260903153009 | 73 | 217 | 0.0 | 3.0 | 0.03 | 0.65 | 0.34 | 98 | 1016.4 |
| 20260903151513 | 73 | 295 | 0.0 | 2.0 | 0.03 | 0.65 | 0.34 | 98 | 1016.7 |
| 20260903150029 | 73 | 228 | 0.0 | 5.0 | 0.01 | 0.63 | 0.32 | 96 | 1017.7 |
| 20260903144516 | 74 | 213 | 0.0 | 2.0 | 0.00 | 0.62 | 0.31 | 95 | 1017.9 |
| 20260903143011 | 75 | 330 | 0.0 | 2.0 | 0.00 | 0.62 | 0.31 | 95 | 1017.9 |
| 20260903141507 | 76 | 232 | 0.0 | 3.0 | 0.00 | 0.62 | 0.31 | 95 | 1017.6 |